When you browse on this site, cookies collect data to enhance your experience and personalize the content and advertising you see.
Visit our Privacy Policy to learn more. By continuing to use the site, you agree to this use of cookies and data.

Stündliche Wetter Zastav'ya

Heute, 22 September, Dienstag

Zeit Temperatur Niederschläge Wind Luftdruck Luftfeuchtigkeit
00:00 +13°C° 0 mm 2 m/S 747 mmHg 63%
01:00 +13°C° 0 mm 2 m/S 747 mmHg 64%
02:00 +12°C° 0 mm 2 m/S 747 mmHg 63%
03:00 +12°C° 0 mm 2 m/S 746 mmHg 61%
04:00 +12°C° 0 mm 2 m/S 746 mmHg 60%
05:00 +12°C° 0 mm 2 m/S 746 mmHg 59%
06:00 +12°C° 0 mm 3 m/S 746 mmHg 57%
07:00 +13°C° 0 mm 3 m/S 746 mmHg 55%
08:00 +14°C° 0 mm 3 m/S 746 mmHg 53%
09:00 +17°C° 0 mm 3 m/S 746 mmHg 50%
10:00 +20°C° 0 mm 4 m/S 746 mmHg 46%
11:00 +22°C° 0 mm 4 m/S 746 mmHg 43%
12:00 +23°C° 0 mm 4 m/S 746 mmHg 41%
13:00 +25°C° 0 mm 4 m/S 746 mmHg 40%
14:00 +26°C° 0 mm 4 m/S 746 mmHg 38%
15:00 +25°C° 0 mm 4 m/S 746 mmHg 43%
16:00 +24°C° 0 mm 3 m/S 745 mmHg 48%
17:00 +23°C° 0 mm 2 m/S 745 mmHg 53%
18:00 +20°C° 0 mm 2 m/S 744 mmHg 56%
19:00 +19°C° 0 mm 3 m/S 744 mmHg 58%
20:00 +17°C° 0 mm 3 m/S 744 mmHg 61%
21:00 +16°C° 0 mm 3 m/S 744 mmHg 59%
22:00 +16°C° 0 mm 3 m/S 744 mmHg 56%
23:00 +14°C° 0 mm 3 m/S 744 mmHg 54%

Morgen, 23 September, Mittwoch

Zeit Temperatur Niederschläge Wind Luftdruck Luftfeuchtigkeit
00:00 +14°C° 0 mm 3 m/S 744 mmHg 52%
01:00 +13°C° 0 mm 3 m/S 744 mmHg 49%
02:00 +13°C° 0 mm 3 m/S 744 mmHg 47%
03:00 +12°C° 0 mm 3 m/S 743 mmHg 46%
04:00 +12°C° 0 mm 3 m/S 743 mmHg 46%
05:00 +11°C° 0 mm 3 m/S 743 mmHg 46%
06:00 +12°C° 0 mm 3 m/S 743 mmHg 49%
07:00 +13°C° 0 mm 4 m/S 743 mmHg 51%
08:00 +14°C° 0 mm 4 m/S 743 mmHg 54%
09:00 +17°C° 0 mm 4 m/S 743 mmHg 51%
10:00 +20°C° 0 mm 5 m/S 743 mmHg 48%
11:00 +22°C° 0 mm 5 m/S 743 mmHg 45%
12:00 +22°C° 0 mm 5 m/S 742 mmHg 43%
13:00 +23°C° 0 mm 5 m/S 742 mmHg 40%
14:00 +25°C° 0 mm 5 m/S 742 mmHg 38%
15:00 +23°C° 0 mm 4 m/S 742 mmHg 42%
16:00 +22°C° 0 mm 4 m/S 741 mmHg 45%
17:00 +21°C° 0 mm 3 m/S 741 mmHg 48%
18:00 +19°C° 0 mm 3 m/S 741 mmHg 49%
19:00 +17°C° 0 mm 3 m/S 741 mmHg 51%
20:00 +16°C° 0 mm 3 m/S 741 mmHg 52%
21:00 +14°C° 0 mm 3 m/S 741 mmHg 51%
22:00 +14°C° 0 mm 3 m/S 741 mmHg 50%
23:00 +13°C° 0 mm 3 m/S 741 mmHg 49%

übermorgen, 24 September, Donnerstag

Zeit Temperatur Niederschläge Wind Luftdruck Luftfeuchtigkeit
00:00 +13°C° 0 mm 3 m/S 741 mmHg 48%
01:00 +12°C° 0 mm 3 m/S 741 mmHg 47%
02:00 +12°C° 0 mm 3 m/S 741 mmHg 45%
03:00 +11°C° 0 mm 3 m/S 740 mmHg 46%
04:00 +11°C° 0 mm 3 m/S 740 mmHg 46%
05:00 +11°C° 0 mm 3 m/S 740 mmHg 46%
06:00 +12°C° 0 mm 3 m/S 740 mmHg 49%
07:00 +13°C° 0 mm 3 m/S 740 mmHg 51%
08:00 +14°C° 0 mm 3 m/S 740 mmHg 53%
09:00 +17°C° 0 mm 4 m/S 740 mmHg 51%
10:00 +19°C° 0 mm 4 m/S 741 mmHg 49%
11:00 +21°C° 0 mm 4 m/S 741 mmHg 47%
12:00 +22°C° 0 mm 4 m/S 741 mmHg 45%
13:00 +23°C° 0 mm 4 m/S 741 mmHg 43%
14:00 +25°C° 0 mm 4 m/S 741 mmHg 41%
15:00 +25°C° 0 mm 3 m/S 740 mmHg 46%
16:00 +24°C° 0 mm 3 m/S 740 mmHg 50%
17:00 +23°C° 0 mm 2 m/S 740 mmHg 55%
18:00 +21°C° 0 mm 3 m/S 740 mmHg 57%
19:00 +19°C° 0 mm 3 m/S 740 mmHg 59%
20:00 +17°C° 0 mm 3 m/S 740 mmHg 62%
21:00 +17°C° 0 mm 3 m/S 740 mmHg 61%
22:00 +17°C° 0 mm 3 m/S 740 mmHg 60%
23:00 +16°C° 0 mm 3 m/S 740 mmHg 60%

25 September, Freitag

Zeit Temperatur Niederschläge Wind Luftdruck Luftfeuchtigkeit
00:00 +16°C° 0 mm 3 m/S 740 mmHg 60%
01:00 +14°C° 0 mm 3 m/S 740 mmHg 60%
02:00 +15°C° 0 mm 2 m/S 740 mmHg 61%
03:00 +15°C° 0 mm 2 m/S 740 mmHg 61%
04:00 +15°C° 0 mm 2 m/S 739 mmHg 62%
05:00 +14°C° 0 mm 2 m/S 739 mmHg 63%
06:00 +14°C° 0 mm 3 m/S 739 mmHg 61%
07:00 +16°C° 0 mm 3 m/S 739 mmHg 59%
08:00 +17°C° 0 mm 3 m/S 739 mmHg 58%
09:00 +19°C° 0 mm 4 m/S 739 mmHg 54%
10:00 +21°C° 0 mm 4 m/S 739 mmHg 51%
11:00 +25°C° 0 mm 5 m/S 739 mmHg 48%
12:00 +26°C° 0 mm 5 m/S 738 mmHg 46%
13:00 +27°C° 0 mm 5 m/S 738 mmHg 44%
14:00 +28°C° 0 mm 6 m/S 738 mmHg 43%
15:00 +27°C° 0 mm 5 m/S 737 mmHg 45%
16:00 +26°C° 0 mm 4 m/S 737 mmHg 48%
17:00 +25°C° 0 mm 4 m/S 736 mmHg 50%
18:00 +23°C° 0.2 mm 4 m/S 736 mmHg 51%
19:00 +21°C° 0.2 mm 4 m/S 736 mmHg 52%
20:00 +20°C° 0.2 mm 4 m/S 736 mmHg 53%
21:00 +20°C° 0 mm 5 m/S 736 mmHg 52%
22:00 +19°C° 0 mm 5 m/S 736 mmHg 51%
23:00 +19°C° 0 mm 5 m/S 735 mmHg 50%

26 September, Samstag

Zeit Temperatur Niederschläge Wind Luftdruck Luftfeuchtigkeit
00:00 +17°C° 0.1 mm 5 m/S 735 mmHg 53%
01:00 +17°C° 0.1 mm 5 m/S 735 mmHg 55%
02:00 +16°C° 0.1 mm 5 m/S 734 mmHg 57%
03:00 +16°C° 0 mm 5 m/S 734 mmHg 63%
04:00 +16°C° 0 mm 5 m/S 734 mmHg 69%
05:00 +16°C° 0 mm 6 m/S 734 mmHg 75%
06:00 +17°C° 0 mm 6 m/S 733 mmHg 73%
07:00 +18°C° 0 mm 7 m/S 733 mmHg 70%
08:00 +18°C° 0 mm 7 m/S 733 mmHg 67%
09:00 +21°C° 0 mm 8 m/S 733 mmHg 62%
10:00 +22°C° 0 mm 8 m/S 733 mmHg 57%
11:00 +24°C° 0 mm 9 m/S 733 mmHg 52%
12:00 +24°C° 0 mm 9 m/S 733 mmHg 50%
13:00 +26°C° 0 mm 9 m/S 732 mmHg 47%
14:00 +27°C° 0 mm 9 m/S 732 mmHg 45%
15:00 +26°C° 0 mm 8 m/S 732 mmHg 46%
16:00 +26°C° 0 mm 7 m/S 731 mmHg 48%
17:00 +24°C° 0 mm 6 m/S 731 mmHg 49%
18:00 +24°C° 0 mm 6 m/S 731 mmHg 49%
19:00 +23°C° 0 mm 7 m/S 731 mmHg 48%
20:00 +23°C° 0 mm 8 m/S 731 mmHg 48%
21:00 +23°C° 0 mm 8 m/S 730 mmHg 47%
22:00 +22°C° 0 mm 8 m/S 730 mmHg 47%
23:00 +22°C° 0 mm 8 m/S 730 mmHg 46%

27 September, Sonntag

Zeit Temperatur Niederschläge Wind Luftdruck Luftfeuchtigkeit
00:00 +21°C° 0.1 mm 9 m/S 729 mmHg 51%
01:00 +21°C° 0.1 mm 9 m/S 729 mmHg 56%
02:00 +19°C° 0.1 mm 9 m/S 729 mmHg 61%
03:00 +19°C° 0.1 mm 9 m/S 729 mmHg 64%
04:00 +18°C° 0.1 mm 8 m/S 729 mmHg 66%
05:00 +18°C° 0.1 mm 7 m/S 728 mmHg 69%
06:00 +18°C° 1.3 mm 8 m/S 729 mmHg 74%
07:00 +17°C° 1.3 mm 8 m/S 729 mmHg 80%
08:00 +17°C° 1.3 mm 8 m/S 729 mmHg 85%
09:00 +16°C° 2.8 mm 8 m/S 729 mmHg 86%
10:00 +15°C° 2.8 mm 7 m/S 729 mmHg 86%
11:00 +15°C° 2.8 mm 6 m/S 730 mmHg 87%
12:00 +14°C° 0.6 mm 6 m/S 731 mmHg 85%
13:00 +14°C° 0.6 mm 5 m/S 731 mmHg 82%
14:00 +13°C° 0.6 mm 5 m/S 732 mmHg 80%
15:00 +14°C° 0.1 mm 4 m/S 733 mmHg 78%
16:00 +14°C° 0.1 mm 3 m/S 734 mmHg 77%
17:00 +15°C° 0.1 mm 2 m/S 735 mmHg 75%
18:00 +14°C° 0 mm 2 m/S 735 mmHg 77%
19:00 +13°C° 0 mm 2 m/S 736 mmHg 79%
20:00 +11°C° 0 mm 3 m/S 737 mmHg 81%
21:00 +12°C° 0 mm 2 m/S 738 mmHg 83%
22:00 +10°C° 0 mm 2 m/S 739 mmHg 85%
23:00 +10°C° 0 mm 2 m/S 739 mmHg 87%
Mehr zeigen